CZ-6A DEB, 54963

Orbit data source: Space-Track

CZ-6A DEB, 54963 is space debris in SSO originally from a launch on Fri, 11 Nov 2022 UTC launched from the Taiyaun Space Center, China (TSC). Debris objects in space refer to the collection of defunct objects orbiting the Earth. Examples of debris include non-operational satellites, rocket bodies, and fragments generated from explosions, collisions, or faulty payload assembly.

Loading next visibility...
Identifier
54963, 2022-151TC
Orbit
SSO
Country
Flag of CNCN / PRC
Related business
Manufacturer
SAST
Mission
Spacecraft
Bus & Motor
Unknown
Mass
Unknown
Launch date (UTC)
2022-11-11 (4 years ago)
Launch vehicle
Unknown
Launch site
Taiyaun Space Center, China (TSC)
Object type
Payload
Rocket body
Debris
Shape & HBR
Unknown shape, 0.1 m
Radar Cross Section
Medium (>0.1 m² and <1 m²)

Expand to show TLE details & history
Last TLE update: 10 hours ago

TLE from 10 hours ago
0 CZ-6A DEB
1 54963U 22151TC  26236.38656185 -.00000140  00000-0 -63785-4 0  9999
2 54963  98.8898 205.3157 0136328 258.1965 100.3879 13.97076657192620
Epoch: 2026-08-24T09:16Z
TLE epoch observation values (Epoch: 2026-08-24T09:16:38.943Z)
Latitude
-0.0001°
Longitude
93.48445°
Altitude
926.022 km
Speed
7.379 km/s
True Right ascension
13h 41m 15s
True Declination
0° 00' 00"
Sunlit
Object was in daylight at epoch
Visualization orbit readout
Latitude
Unknown
Longitude
Unknown
Altitude
Unknown
Speed
Unknown
Apparent Right ascension
Unknown
Apparent Declination
Unknown
Sunlit
N/A
Visualization observer readout
Local Sidereal Time
10:15:53
Azimuth
Unknown
Elevation
Unknown
Doppler factor
Unknown
Orbital elements
Apogee altitude
1,000.37 km
Perigee altitude
801.896 km
Semi-major axis
7,279.27 km
Eccentricity
0.01363
Inclination
98.8898°
RAAN
205.3157°
Arg. of periapsis
258.1965°
True anomaly
101.91961°
Mean anomaly
100.3879°
Eccentric anomaly
101.15425°
Mean motion
3.49471 °/min
Orbital period
103.01 mins
BSTAR
-0.000063785
Loading maneuver chart data...
Computing Atmospheric mass density...

Documentation

Showing up to 5 results
|